Terug naar catalogus

CZ-6A DEB

ActiefPO
NORAD 64654·DEBRIS·🇨🇳 China

Gelanceerd Aug 6, 2024 vanaf Taiyuan Satellite Launch Center

Loading…

Volgende Passages (komende 24 uur)

TLE

VersSource: Space-Track

Epoch: Sep 14, 2026, 07:09 UTC

1 64654U 24140AEU 26257.29855454  .00001245  00000-0  60339-3 0  9996
2 64654  88.3326 205.4830 0075065 267.0498  92.2098 14.16340903 97814

Volg CZ-6A DEB in realtime met AllMySat

Download on the App Store